This is the latest recevied weather packets stored in our database for station/object GW7110. If no packets are shown the sender has not sent any weather packets the latest 1 day(s).
| Time | Temp. | Humidity | Pressure | Rain* | Wind** | Luminosity | Snow |
|---|---|---|---|---|---|---|---|
| 1777998003 | 22.78° C | 53% | 30 hPa | 0 mm | 0.45 m/s, 195° | 93 W/m² | - |
| 1777997701 | 22.22° C | 54% | 30 hPa | 0 mm | 0 m/s | 78 W/m² | - |
| 1777997405 | 22.22° C | 56% | 30 hPa | 0 mm | 0 m/s | 69 W/m² | - |
| 1777997102 | 22.22° C | 54% | 30 hPa | 0 mm | 0.89 m/s, 194° | 76 W/m² | - |
| 1777996802 | 22.22° C | 56% | 30 hPa | 0 mm | 0 m/s | 124 W/m² | - |
| 1777996503 | 22.22° C | 54% | 30 hPa | 0 mm | 0.45 m/s, 219° | 118 W/m² | - |
| 1777996202 | 22.22° C | 55% | 30 hPa | 0 mm | 0.45 m/s, 262° | 101 W/m² | - |
| 1777995903 | 21.67° C | 54% | 30 hPa | 0 mm | 0.89 m/s, 278° | 77 W/m² | - |
| 1777995602 | 21.11° C | 56% | 30 hPa | 0 mm | 0 m/s | 71 W/m² | - |
| 1777995302 | 21.11° C | 58% | 30 hPa | 0 mm | 0 m/s | 59 W/m² | - |
| 1777995002 | 20.56° C | 58% | 30 hPa | 0 mm | 0.89 m/s, 262° | 54 W/m² | - |
| 1777994701 | 20.56° C | 60% | 30 hPa | 0 mm | 0.45 m/s, 260° | 51 W/m² | - |
| 1777994188 | 20.56° C | 62% | 30 hPa | 0 mm | 0.45 m/s, 288° | 50 W/m² | - |
| 1777993889 | 20° C | 60% | 30 hPa | 0 mm | 0.45 m/s, 262° | 50 W/m² | - |
| 1777993588 | 20° C | 62% | 30 hPa | 0 mm | 0.89 m/s, 291° | 50 W/m² | - |
| 1777993289 | 20° C | 62% | 30 hPa | 0 mm | 0.45 m/s, 245° | 49 W/m² | - |
| 1777992989 | 20° C | 61% | 30 hPa | 0 mm | 0 m/s | 51 W/m² | - |
| 1777992687 | 19.44° C | 63% | 30 hPa | 0 mm | 0.45 m/s, 263° | 53 W/m² | - |
| 1777992388 | 19.44° C | 63% | 30 hPa | 0 mm | 0.89 m/s, 287° | 62 W/m² | - |
| 1777992088 | 19.44° C | 63% | 30 hPa | 0 mm | 0 m/s | 64 W/m² | - |
| 1777991788 | 18.89° C | 63% | 30 hPa | 0 mm | 0.89 m/s, 314° | 65 W/m² | - |
| 1777991488 | 18.89° C | 62% | 30 hPa | 0 mm | 0.45 m/s, 205° | 72 W/m² | - |
| 1777991188 | 18.89° C | 64% | 30 hPa | 0 mm | 0 m/s | 78 W/m² | - |
| 1777990888 | 18.89° C | 63% | 30 hPa | 0 mm | 0.45 m/s, 277° | 74 W/m² | - |
| 1777990587 | 18.89° C | 64% | 30 hPa | 0 mm | 0.45 m/s, 286° | 71 W/m² | - |
* Rain latest hour (hover to see other rain measurements)
** Current wind speed in m/s (hover to see current wind gust speed)